Galesburg, IL

7:51 PM CST on February 09, 2016 (GMT -0600)
Galesburg Municipal

Weather History for KGBG - January, 2013

Change the Weather History Date:

Sunday, January 27, 2013

  Actual Average Record
Temperature  
Mean Temperature 34 °F -  
Max Temperature 42 °F 29 °F 62 °F (2002)
Min Temperature 27 °F 13 °F -17 °F (1955)
Degree Days  
Heating Degree Days 31    
Moisture  
Dew Point 28 °F    
Average Humidity 85    
Maximum Humidity 100    
Minimum Humidity 61    
Precipitation  
Precipitation 0.21 in - - ()
Sea Level Pressure  
Sea Level Pressure 30.06 in    
Wind  
Wind Speed 9 mph (SE)    
Max Wind Speed 13 mph    
Max Gust Speed 22 mph    
Visibility 6 miles    
Events Fog , Rain , Snow , Thunderstorm    
Averages and records for this station are not official NWS values.
T = Trace of Precipitation, MM = Missing Value Source: NWS Daily Summary

Daily Weather History Graph

Daily Weather History Graph

Search for Another Location

Airport or City:

Trip Planner

Search our weather history database for the weather conditions in past years. The results will help you decide how hot, cold, wet, or windy it might be!

Date:

Astronomy

Jan. 27, 2013 Rise Set
Actual Time 7:16 AM CST 5:13 PM CST
Civil Twilight 6:47 AM CST 5:42 PM CST
Nautical Twilight 6:13 AM CST 6:15 PM CST
Astronomical Twilight 5:41 AM CST 6:48 PM CST
Moon 6:08 PM CST (1/27) 7:08 AM CST (1/27)
Length of Visible Light 10h 55m
Length of Day
9h 56m
Full, 100% of the Moon is Illuminated
Jan 27
Full
Feb 3
Last Quarter
Feb 10
New
Feb 17
First Quarter
Feb 25
Full

Hourly Weather History & Observations

Time (CST) Temp. Windchill Dew Point Humidity Pressure Visibility Wind Dir Wind Speed Gust Speed Precip Events Conditions
12:15 AM 27.5 °F 19.3 °F 15.4 °F 61% 30.30 in 10.0 mi SE 8.1 mph - N/A   Clear
12:35 AM 27.5 °F 18.0 °F 15.6 °F 61% 30.30 in 10.0 mi SE 10.4 mph - N/A   Clear
12:55 AM 27.5 °F 18.6 °F 15.8 °F 61% 30.29 in 10.0 mi SE 9.2 mph - N/A   Clear
1:15 AM 27.5 °F 18.6 °F 16.5 °F 63% 30.28 in 10.0 mi SE 9.2 mph - N/A   Clear
1:35 AM 27.7 °F 18.8 °F 16.7 °F 63% 30.28 in 10.0 mi SE 9.2 mph - N/A   Clear
1:55 AM 27.9 °F 19.1 °F 16.7 °F 63% 30.28 in 10.0 mi SE 9.2 mph - N/A   Clear
2:15 AM 27.9 °F 19.1 °F 17.2 °F 64% 30.27 in 10.0 mi SE 9.2 mph 16.1 mph N/A   Clear
2:35 AM 28.2 °F 19.5 °F 17.4 °F 64% 30.27 in 10.0 mi SE 9.2 mph - N/A   Clear
2:55 AM 28.0 °F 18.6 °F 17.6 °F 65% 30.25 in 10.0 mi SE 10.4 mph 16.1 mph N/A   Clear
3:15 AM 27.9 °F 19.1 °F 17.6 °F 65% 30.25 in 10.0 mi SE 9.2 mph - N/A   Clear
3:35 AM 27.9 °F 19.1 °F 18.0 °F 66% 30.24 in 10.0 mi SE 9.2 mph - N/A   Mostly Cloudy
3:55 AM 27.5 °F 18.0 °F 18.0 °F 67% 30.22 in 10.0 mi SE 10.4 mph 17.3 mph N/A   Overcast
4:15 AM 27.7 °F 19.6 °F 18.1 °F 67% 30.22 in 10.0 mi SE 8.1 mph - N/A   Overcast
4:35 AM 27.9 °F 19.1 °F 18.1 °F 67% 30.21 in 10.0 mi SE 9.2 mph 16.1 mph N/A   Mostly Cloudy
4:55 AM 27.7 °F 18.8 °F 18.1 °F 67% 30.21 in 10.0 mi SE 9.2 mph 16.1 mph N/A   Scattered Clouds
5:15 AM 27.9 °F 18.4 °F 18.1 °F 67% 30.20 in 10.0 mi SE 10.4 mph - N/A   Scattered Clouds
5:35 AM 28.2 °F 19.5 °F 18.1 °F 66% 30.20 in 10.0 mi SE 9.2 mph 17.3 mph N/A   Scattered Clouds
5:55 AM 28.4 °F 19.7 °F 18.3 °F 66% 30.20 in 10.0 mi SE 9.2 mph - N/A   Mostly Cloudy
6:15 AM 28.4 °F 20.4 °F 18.3 °F 66% 30.20 in 10.0 mi SE 8.1 mph - N/A   Overcast
6:35 AM 28.8 °F 20.9 °F 18.3 °F 65% 30.20 in 10.0 mi SE 8.1 mph - N/A   Overcast
6:55 AM 28.8 °F 20.2 °F 18.5 °F 66% 30.20 in 10.0 mi SE 9.2 mph - N/A   Overcast
7:15 AM 28.9 °F 19.8 °F 18.5 °F 65% 30.21 in 10.0 mi SE 10.4 mph - N/A   Overcast
7:35 AM 29.1 °F 20.0 °F 19.0 °F 66% 30.22 in 10.0 mi SSE 10.4 mph - N/A   Overcast
7:55 AM 29.1 °F 23.0 °F 19.2 °F 67% 30.22 in 10.0 mi SE 5.8 mph - N/A   Overcast
8:15 AM 29.3 °F 20.8 °F 19.4 °F 67% 30.22 in 10.0 mi SSE 9.2 mph - N/A   Overcast
8:35 AM 29.3 °F 21.5 °F 20.5 °F 70% 30.22 in 7.0 mi SSE 8.1 mph - N/A Snow Light Snow
8:55 AM 29.1 °F 20.0 °F 22.5 °F 76% 30.20 in 7.0 mi SSE 10.4 mph 16.1 mph N/A   Overcast
9:15 AM 29.3 °F 19.6 °F 22.3 °F 75% 30.18 in 10.0 mi SE 11.5 mph 17.3 mph N/A   Overcast
9:35 AM 30.0 °F 21.1 °F 23.2 °F 76% 30.16 in 10.0 mi SE 10.4 mph 16.1 mph N/A   Overcast
9:55 AM 30.7 °F 21.4 °F 24.4 °F 77% 30.15 in 10.0 mi SE 11.5 mph 18.4 mph N/A   Overcast
10:15 AM 31.1 °F 22.4 °F 25.3 °F 79% 30.13 in 7.0 mi ESE 10.4 mph 17.3 mph N/A   Overcast
10:35 AM 31.5 °F 21.8 °F 27.1 °F 84% 30.11 in 5.0 mi ESE 12.7 mph 19.6 mph N/A   Overcast
10:55 AM 31.6 °F 23.1 °F 28.4 °F 88% 30.10 in 5.0 mi ESE 10.4 mph 21.9 mph N/A   Overcast
11:15 AM 31.8 °F 22.3 °F 29.3 °F 90% 30.08 in 1.5 mi SE 12.7 mph 19.6 mph 0.04 in   Overcast
11:35 AM 31.8 °F 24.6 °F 30.4 °F 94% 30.10 in 1.5 mi SE 8.1 mph - 0.08 in Snow Light Snow
11:55 AM 32.0 °F 26.4 °F 31.1 °F 96% 30.07 in 2.0 mi SE 5.8 mph - 0.12 in   Overcast
12:15 PM 32.0 °F 24.8 °F 31.6 °F 99% 30.05 in 3.0 mi ESE 8.1 mph - N/A   Overcast
12:35 PM 32.0 °F 23.0 °F 32.0 °F 100% 30.03 in 3.0 mi ESE 11.5 mph 17.3 mph N/A   Overcast
12:55 PM 32.2 °F 24.4 °F 32.0 °F 99% 30.01 in 1.5 mi ESE 9.2 mph - 0.02 in   Overcast
1:15 PM 32.4 °F 24.0 °F 32.0 °F 99% 29.99 in 1.8 mi SE 10.4 mph 16.1 mph 0.03 in   Overcast
1:35 PM 32.9 °F 24.7 °F 32.2 °F 97% 29.99 in 2.5 mi SE 10.4 mph 17.3 mph 0.06 in   Overcast
1:55 PM 33.3 °F 26.4 °F 32.5 °F 97% 29.98 in 5.0 mi SE 8.1 mph 18.4 mph 0.06 in   Overcast
2:15 PM 33.6 °F 26.2 °F 32.9 °F 97% 29.97 in 4.0 mi SE 9.2 mph 16.1 mph N/A Snow , Thunderstorm Light Thunderstorms and Snow
2:35 PM 33.8 °F 26.4 °F 33.3 °F 98% 29.98 in 4.0 mi SE 9.2 mph - N/A   Overcast
2:55 PM 34.0 °F 25.5 °F 33.4 °F 98% 29.96 in 4.0 mi SE 11.5 mph 16.1 mph N/A   Drizzle
3:15 PM 34.0 °F 26.0 °F 33.8 °F 99% 29.96 in 3.0 mi SE 10.4 mph 18.4 mph N/A Rain , Thunderstorm Light Thunderstorms and Rain
3:35 PM 34.2 °F 25.2 °F 34.0 °F 99% 29.94 in 2.5 mi SE 12.7 mph 16.1 mph N/A Rain Light Rain
3:55 PM 34.3 °F 25.5 °F 34.2 °F 99% 29.94 in 2.0 mi SE 12.7 mph 17.3 mph N/A   Overcast
4:15 PM 34.7 °F 26.9 °F 34.3 °F 99% 29.94 in 1.8 mi SE 10.4 mph - N/A   Overcast
4:35 PM 34.9 °F 27.7 °F 34.7 °F 99% 29.93 in 1.8 mi SSE 9.2 mph 16.1 mph N/A   Overcast
4:55 PM 35.6 °F 28.6 °F 35.2 °F 99% 29.92 in 1.8 mi SSE 9.2 mph 16.1 mph N/A   Overcast
5:15 PM 35.6 °F 28.0 °F 35.6 °F 100% 29.92 in 1.8 mi SSE 10.4 mph - N/A   Overcast
5:35 PM 35.6 °F 28.0 °F 35.6 °F 100% 29.91 in 2.5 mi SE 10.4 mph 17.3 mph N/A   Overcast
5:55 PM 35.8 °F 28.8 °F 35.6 °F 99% 29.90 in 2.5 mi SE 9.2 mph 17.3 mph N/A   Overcast
6:15 PM 36.0 °F 29.0 °F 36.0 °F 100% 29.90 in 2.5 mi SE 9.2 mph - N/A   Overcast
6:35 PM 36.1 °F 29.3 °F 36.0 °F 99% 29.89 in 2.5 mi SE 9.2 mph - N/A   Overcast
6:55 PM 36.1 °F 29.3 °F 36.1 °F 100% 29.89 in 2.0 mi SE 9.2 mph 16.1 mph N/A   Overcast
7:15 PM 36.5 °F 29.7 °F 36.5 °F 100% 29.89 in 2.0 mi SE 9.2 mph - N/A Rain Light Rain
7:35 PM 36.7 °F 30.5 °F 36.5 °F 99% 29.89 in 2.5 mi SE 8.1 mph 16.1 mph N/A Rain Light Rain
7:55 PM 36.7 °F 31.2 °F 36.5 °F 99% 29.88 in 2.5 mi SE 6.9 mph - N/A   Overcast
8:15 PM 36.9 °F 30.7 °F 36.7 °F 99% 29.89 in 3.0 mi SE 8.1 mph - 0.01 in   Overcast
8:35 PM 37.0 °F 31.6 °F 36.9 °F 99% 29.89 in 2.5 mi SE 6.9 mph - 0.01 in   Light Drizzle
8:55 PM 37.4 °F 32.8 °F 37.0 °F 99% 29.89 in 2.5 mi SE 5.8 mph - 0.01 in   Overcast
9:15 PM 37.6 °F 31.6 °F 37.6 °F 100% 29.89 in 2.5 mi SE 8.1 mph - N/A   Overcast
9:35 PM 38.3 °F 33.9 °F 38.3 °F 100% 29.89 in 1.8 mi SE 5.8 mph - N/A   Overcast
9:55 PM 38.3 °F 32.5 °F 38.3 °F 100% 29.88 in 1.0 mi SE 8.1 mph - N/A   Overcast
10:15 PM 38.3 °F 31.9 °F 38.3 °F 100% 29.87 in 0.5 mi SE 9.2 mph - N/A Fog Fog
10:35 PM 38.8 °F 32.1 °F 38.8 °F 100% 29.86 in 0.5 mi SE 10.4 mph - N/A Fog Fog
10:55 PM 39.7 °F 32.7 °F 39.7 °F 100% 29.86 in 0.5 mi SSE 11.5 mph 18.4 mph N/A Fog Fog
11:15 PM 40.3 °F 33.9 °F 40.3 °F 100% 29.86 in 0.5 mi SSE 10.4 mph - N/A Fog Fog
11:35 PM 41.5 °F 34.6 °F 41.5 °F 100% 29.85 in 0.8 mi SSE 12.7 mph 17.3 mph N/A   Overcast
11:55 PM 42.8 °F 36.6 °F 42.8 °F 100% 29.85 in 2.0 mi South 11.5 mph 18.4 mph N/A   Overcast